FENGYUN 1C DEB

Satellite information

Favourite Embed

Satellite Type and Status

DEBRISIN ORBIT

Key statistics

Satellite FENGYUN 1C DEB at a glance.

Uptime

9555

Days in orbit

Revolutions

≈ 14.4

Per day

Orbit

SSO

Sun Synchronous Orbit

Inclination

98.2

Latest

Satellite identification and parameters

Extended collection of information and parameters for FENGYUN 1C DEB.

Object identification

Identified? True

Debris? True

Object name: FENGYUN 1C DEB

International designator: 1999-025BNB

Object number (NORAD): 31269

Object ID (CCSDS): 31269

Country: PEOPLES REPUBLIC OF CHINA (PRC)

Current information (Y/N): Y

RCS size: SMALL

Orbital parameters

Period: 99.954 minutes

Inclination: 98.2004 deg

SMA: 7134.436 km

Apoapsis: 936.182 km

Periapsis: 576.42 km

RAAN: 71.9956 deg

Eccentricy: 0.0252131

Argument of periapsis: 38.0306 deg

Mean anomaly: 15.5487 deg

Mean motion: 14.40665973 rev/day

Mean motion (dot): 0.00008392 rev/day2

B* drag term: 0.00181 1/REarth

Two-line elements (TLE)

Creation date: July 6, 2025, 10:46 p.m.

Reference frame: TEME

Reference center: EARTH

Epoch: July 6, 2025, 3:41 p.m. UTC

TLE line 0: 0 FENGYUN 1C DEB

TLE line 1: 1 31269U 99025BNB 25187.65357909 .00008392 00000-0 18100-2 0 9997

TLE line 2: 2 31269 98.2004 71.9956 0252131 38.0306 15.5487 14.40665973943806

Live tracking on map

Real-time ground track for satellite FENGYUN 1C DEB.

In-orbit conjunctions

A list of the most updated potential collisions computed for object FENGYUN 1C DEB.

Target Orbit TCA Probability of collision Miss distance Type
CZ-6A DEB LEO 2024-11-21 13:08:28 0.0001168518 542.0 (m) DEBRIS
SL-14 R/B LEO 2024-10-14 08:07:16 0.0001340469 606.0 (m) ROCKET BODY

Associated space launch

Chinese polar orbiting meteorological satellite

FENGYUN 1C DEB was lifted into orbit during the mission ‘Long March 4B | Feng Yun 1C’, on board a Long March 4B space rocket.

The launch took place on May 10, 1999, 1:33 a.m. from Launch Complex 7.

For more information about the launch, click the button.

Launch to space Long March 4B | Feng Yun 1C
Long March 4B | Feng Yun 1C

Agency: N/A

Status: Launch Successful

Launch date: May 10, 1999, 1:33 a.m. UTC

Rocket: Long March 4B

Launch pad: Launch Complex 7

Location: Taiyuan Satellite Launch Center, People's Republic of China

...

Latest news about this satellite

There are no fresh news available about this satellite. Check back as we update our databases every day.


Newsletter sign-up

Weekly statistics, charts and insights to help you stay on top of the space industry.